Time,TemperatureF,DewpointF,PressureIn,WindDirection,WindDirectionDegrees,WindSpeedMPH,WindSpeedGustMPH,Humidity,HourlyPrecipIn,Conditions,Clouds,dailyrainin,SoftwareType,DateUTC
2013-03-03 00:00:00,30.0,-99.9,-100.00,SW,217,14.0,17.0,-999,-99.99,,,-99.99,,2013-03-03 07:00:00,
2013-03-03 00:52:00,30.0,-99.9,-100.00,SW,217,14.0,17.0,-999,-99.99,,,-99.99,,2013-03-03 07:52:00,
2013-03-03 01:00:00,32.0,-99.9,-100.00,South,179,8.0,10.0,-999,-99.99,,,-99.99,,2013-03-03 08:00:00,
2013-03-03 01:54:00,32.0,-99.9,-100.00,South,179,8.0,10.0,-999,-99.99,,,-99.99,,2013-03-03 08:54:00,
2013-03-03 02:00:00,32.0,-99.9,-100.00,WSW,245,13.0,15.0,-999,-99.99,,,-99.99,,2013-03-03 09:00:00,
2013-03-03 02:52:00,32.0,-99.9,-100.00,WSW,245,13.0,15.0,-999,-99.99,,,-99.99,,2013-03-03 09:52:00,
2013-03-03 03:52:00,34.0,-99.9,-100.00,SW,233,33.0,50.0,-999,-99.99,,,-99.99,,2013-03-03 10:52:00,
2013-03-03 04:02:00,34.0,-99.9,-100.00,SW,223,38.0,44.0,-999,-99.99,,,-99.99,,2013-03-03 11:02:00,
2013-03-03 04:11:00,34.0,-99.9,-100.00,SW,223,38.0,44.0,-999,-99.99,,,-99.99,,2013-03-03 11:11:00,
2013-03-03 04:22:00,34.0,-99.9,-100.00,WSW,238,40.0,50.0,-999,-99.99,,,-99.99,,2013-03-03 11:22:00,
2013-03-03 04:32:00,34.0,-99.9,-100.00,SW,232,50.0,52.0,-999,-99.99,,,-99.99,,2013-03-03 11:32:00,
2013-03-03 04:42:00,34.0,-99.9,-100.00,SW,232,50.0,52.0,-999,-99.99,,,-99.99,,2013-03-03 11:42:00,
2013-03-03 04:53:00,34.0,-99.9,-100.00,WSW,238,52.0,57.0,-999,-99.99,,,-99.99,,2013-03-03 11:53:00,
2013-03-03 05:02:00,34.0,-99.9,-100.00,WSW,249,52.0,56.0,-999,-99.99,,,-99.99,,2013-03-03 12:02:00,
2013-03-03 05:11:00,34.0,-99.9,-100.00,WSW,249,52.0,56.0,-999,-99.99,,,-99.99,,2013-03-03 12:11:00,
2013-03-03 05:22:00,34.0,-99.9,-100.00,SW,231,42.0,53.0,-999,-99.99,,,-99.99,,2013-03-03 12:22:00,
2013-03-03 05:32:00,32.0,-99.9,-100.00,SW,234,50.0,50.0,-999,-99.99,,,-99.99,,2013-03-03 12:32:00,
2013-03-03 05:43:00,32.0,-99.9,-100.00,SW,234,50.0,50.0,-999,-99.99,,,-99.99,,2013-03-03 12:43:00,
2013-03-03 05:53:00,32.0,-99.9,-100.00,WSW,238,40.0,51.0,-999,-99.99,,,-99.99,,2013-03-03 12:53:00,
2013-03-03 06:02:00,32.0,-99.9,-100.00,WSW,242,32.0,51.0,-999,-99.99,,,-99.99,,2013-03-03 13:02:00,
2013-03-03 06:11:00,32.0,-99.9,-100.00,WSW,242,32.0,51.0,-999,-99.99,,,-99.99,,2013-03-03 13:11:00,
2013-03-03 06:22:00,32.0,-99.9,-100.00,WSW,250,36.0,54.0,-999,-99.99,,,-99.99,,2013-03-03 13:22:00,
2013-03-03 06:32:00,32.0,-99.9,-100.00,WSW,241,43.0,52.0,-999,-99.99,,,-99.99,,2013-03-03 13:32:00,
2013-03-03 06:42:00,32.0,-99.9,-100.00,WSW,241,43.0,52.0,-999,-99.99,,,-99.99,,2013-03-03 13:42:00,
2013-03-03 06:52:00,32.0,-99.9,-100.00,WSW,249,49.0,52.0,-999,-99.99,,,-99.99,,2013-03-03 13:52:00,
2013-03-03 07:02:00,30.0,-99.9,-100.00,WSW,241,37.0,49.0,-999,-99.99,,,-99.99,,2013-03-03 14:02:00,
2013-03-03 07:11:00,30.0,-99.9,-100.00,WSW,241,37.0,49.0,-999,-99.99,,,-99.99,,2013-03-03 14:11:00,
2013-03-03 07:22:00,30.0,-99.9,-100.00,WSW,245,40.0,47.0,-999,-99.99,,,-99.99,,2013-03-03 14:22:00,
2013-03-03 07:32:00,32.0,-99.9,-100.00,SW,231,40.0,50.0,-999,-99.99,,,-99.99,,2013-03-03 14:32:00,
2013-03-03 07:42:00,32.0,-99.9,-100.00,SW,231,40.0,50.0,-999,-99.99,,,-99.99,,2013-03-03 14:42:00,
2013-03-03 07:52:00,32.0,-99.9,-100.00,SW,231,44.0,54.0,-999,-99.99,,,-99.99,,2013-03-03 14:52:00,
2013-03-03 08:02:00,32.0,-99.9,-100.00,WSW,237,28.0,55.0,-999,-99.99,,,-99.99,,2013-03-03 15:02:00,
2013-03-03 08:11:00,32.0,-99.9,-100.00,WSW,237,28.0,55.0,-999,-99.99,,,-99.99,,2013-03-03 15:11:00,
2013-03-03 08:22:00,32.0,-99.9,-100.00,SW,230,43.0,52.0,-999,-99.99,,,-99.99,,2013-03-03 15:22:00,
2013-03-03 08:33:00,32.0,-99.9,-100.00,WSW,238,41.0,54.0,-999,-99.99,,,-99.99,,2013-03-03 15:33:00,
2013-03-03 08:42:00,32.0,-99.9,-100.00,WSW,238,41.0,54.0,-999,-99.99,,,-99.99,,2013-03-03 15:42:00,
2013-03-03 08:52:00,32.0,-99.9,-100.00,SW,235,36.0,47.0,-999,-99.99,,,-99.99,,2013-03-03 15:52:00,
2013-03-03 09:02:00,34.0,-99.9,-100.00,SW,236,38.0,48.0,-999,-99.99,,,-99.99,,2013-03-03 16:02:00,
2013-03-03 09:12:00,34.0,-99.9,-100.00,SW,236,38.0,48.0,-999,-99.99,,,-99.99,,2013-03-03 16:12:00,
2013-03-03 09:22:00,34.0,-99.9,-100.00,WSW,243,27.0,43.0,-999,-99.99,,,-99.99,,2013-03-03 16:22:00,
2013-03-03 09:32:00,36.0,-99.9,-100.00,SW,234,42.0,55.0,-999,-99.99,,,-99.99,,2013-03-03 16:32:00,
2013-03-03 09:42:00,36.0,-99.9,-100.00,SW,234,42.0,55.0,-999,-99.99,,,-99.99,,2013-03-03 16:42:00,
2013-03-03 09:52:00,36.0,-99.9,-100.00,SW,229,48.0,48.0,-999,-99.99,,,-99.99,,2013-03-03 16:52:00,
2013-03-03 10:02:00,36.0,-99.9,-100.00,SW,231,23.0,51.0,-999,-99.99,,,-99.99,,2013-03-03 17:02:00,
2013-03-03 10:12:00,36.0,-99.9,-100.00,SW,231,23.0,51.0,-999,-99.99,,,-99.99,,2013-03-03 17:12:00,
2013-03-03 10:22:00,36.0,-99.9,-100.00,SW,235,40.0,51.0,-999,-99.99,,,-99.99,,2013-03-03 17:22:00,
2013-03-03 10:32:00,36.0,-99.9,-100.00,SW,231,38.0,50.0,-999,-99.99,,,-99.99,,2013-03-03 17:32:00,
2013-03-03 10:42:00,36.0,-99.9,-100.00,SW,231,38.0,50.0,-999,-99.99,,,-99.99,,2013-03-03 17:42:00,
2013-03-03 10:52:00,37.0,-99.9,-100.00,SW,229,37.0,45.0,-999,-99.99,,,-99.99,,2013-03-03 17:52:00,
2013-03-03 11:02:00,36.0,-99.9,-100.00,SW,233,37.0,49.0,-999,-99.99,,,-99.99,,2013-03-03 18:02:00,
2013-03-03 11:11:00,36.0,-99.9,-100.00,SW,233,37.0,49.0,-999,-99.99,,,-99.99,,2013-03-03 18:11:00,
2013-03-03 11:22:00,37.0,-99.9,-100.00,SW,235,39.0,43.0,-999,-99.99,,,-99.99,,2013-03-03 18:22:00,
2013-03-03 11:32:00,37.0,-99.9,-100.00,WSW,241,35.0,52.0,-999,-99.99,,,-99.99,,2013-03-03 18:32:00,
2013-03-03 11:42:00,37.0,-99.9,-100.00,WSW,241,35.0,52.0,-999,-99.99,,,-99.99,,2013-03-03 18:42:00,
2013-03-03 11:53:00,37.0,-99.9,-100.00,SW,229,44.0,55.0,-999,-99.99,,,-99.99,,2013-03-03 18:53:00,
2013-03-03 12:00:00,39.0,-99.9,-100.00,SW,227,27.0,44.0,-999,-99.99,,,-99.99,,2013-03-03 19:00:00,
2013-03-03 12:02:00,36.0,-99.9,-100.00,WSW,245,44.0,47.0,-999,-99.99,,,-99.99,,2013-03-03 19:02:00,
2013-03-03 12:11:00,36.0,-99.9,-100.00,WSW,245,44.0,47.0,-999,-99.99,,,-99.99,,2013-03-03 19:11:00,
2013-03-03 12:22:00,37.0,-99.9,-100.00,SW,222,39.0,51.0,-999,-99.99,,,-99.99,,2013-03-03 19:22:00,
2013-03-03 12:32:00,39.0,-99.9,-100.00,SW,233,36.0,44.0,-999,-99.99,,,-99.99,,2013-03-03 19:32:00,
2013-03-03 12:43:00,39.0,-99.9,-100.00,SW,233,36.0,44.0,-999,-99.99,,,-99.99,,2013-03-03 19:43:00,
2013-03-03 12:52:00,39.0,-99.9,-100.00,SW,227,27.0,44.0,-999,-99.99,,,-99.99,,2013-03-03 19:52:00,
2013-03-03 13:00:00,37.0,-99.9,-100.00,SW,226,37.0,46.0,-999,-99.99,,,-99.99,,2013-03-03 20:00:00,
2013-03-03 13:53:00,37.0,-99.9,-100.00,SW,226,37.0,46.0,-999,-99.99,,,-99.99,,2013-03-03 20:53:00,
2013-03-03 14:00:00,37.0,-99.9,-100.00,WSW,238,38.0,44.0,-999,-99.99,,,-99.99,,2013-03-03 21:00:00,
2013-03-03 14:52:00,37.0,-99.9,-100.00,WSW,238,38.0,44.0,-999,-99.99,,,-99.99,,2013-03-03 21:52:00,
2013-03-03 15:00:00,37.0,-99.9,-100.00,SW,229,33.0,45.0,-999,-99.99,,,-99.99,,2013-03-03 22:00:00,
2013-03-03 15:53:00,37.0,-99.9,-100.00,SW,229,33.0,45.0,-999,-99.99,,,-99.99,,2013-03-03 22:53:00,
2013-03-03 16:20:00,34.0,-99.9,-100.00,WSW,238,33.0,44.0,-999,-99.99,,,-99.99,,2013-03-03 23:20:00,
2013-03-03 16:52:00,34.0,-99.9,-100.00,SW,229,44.0,48.0,-999,-99.99,,,-99.99,,2013-03-03 23:52:00,
2013-03-03 17:00:00,34.0,-99.9,-100.00,WSW,238,23.0,38.0,-999,-99.99,,,-99.99,,2013-03-04 00:00:00,
2013-03-03 17:02:00,34.0,-99.9,-100.00,WSW,238,33.0,44.0,-999,-99.99,,,-99.99,,2013-03-04 00:02:00,
2013-03-03 17:11:00,34.0,-99.9,-100.00,WSW,238,33.0,44.0,-999,-99.99,,,-99.99,,2013-03-04 00:11:00,
2013-03-03 17:52:00,34.0,-99.9,-100.00,WSW,238,23.0,38.0,-999,-99.99,,,-99.99,,2013-03-04 00:52:00,
2013-03-03 18:00:00,32.0,-99.9,-100.00,SW,231,18.0,31.0,-999,-99.99,,,-99.99,,2013-03-04 01:00:00,
2013-03-03 18:52:00,32.0,-99.9,-100.00,SW,231,18.0,31.0,-999,-99.99,,,-99.99,,2013-03-04 01:52:00,
2013-03-03 19:00:00,30.0,-99.9,-100.00,WSW,258,17.0,23.0,-999,-99.99,,,-99.99,,2013-03-04 02:00:00,
2013-03-03 19:53:00,30.0,-99.9,-100.00,WSW,258,17.0,23.0,-999,-99.99,,,-99.99,,2013-03-04 02:53:00,
2013-03-03 20:00:00,28.0,-99.9,-100.00,SSW,208,23.0,26.0,-999,-99.99,,,-99.99,,2013-03-04 03:00:00,
2013-03-03 20:53:00,28.0,-99.9,-100.00,SSW,208,23.0,26.0,-999,-99.99,,,-99.99,,2013-03-04 03:53:00,
2013-03-03 21:00:00,30.0,-99.9,-100.00,West,263,17.0,23.0,-999,-99.99,,,-99.99,,2013-03-04 04:00:00,
2013-03-03 21:52:00,30.0,-99.9,-100.00,West,263,17.0,23.0,-999,-99.99,,,-99.99,,2013-03-04 04:52:00,
2013-03-03 22:00:00,28.0,-99.9,-100.00,WSW,240,20.0,31.0,-999,-99.99,,,-99.99,,2013-03-04 05:00:00,
2013-03-03 22:52:00,28.0,-99.9,-100.00,WSW,240,20.0,31.0,-999,-99.99,,,-99.99,,2013-03-04 05:52:00,
2013-03-03 23:00:00,28.0,-99.9,-100.00,WSW,257,22.0,29.0,-999,-99.99,,,-99.99,,2013-03-04 06:00:00,
2013-03-03 23:52:00,28.0,-99.9,-100.00,WSW,257,22.0,29.0,-999,-99.99,,,-99.99,,2013-03-04 06:52:00,